User: anonymous   Login
Location: Unspecified
(0.0000°N, 0.0000°E)
Time: 01:46:00
(UTC+00:00)
Language:

USA 162 - Orbit

View from above orbital plane
View from above orbital plane
View from above satellite
View from above satellite

Ground track
Ground track

The orbit data is extracted from the following two-line orbital elements,

1 26948U 01046A   18140.56432473 0.00000000  00000-0  00000-0 0    01
2 26948   9.7198  51.1963 0015722 212.3779 147.5361  1.00270000    05
Epoch (UTC): 20 May 2018 13:32:37
Eccentricity: 0.0015722
inclination: 9.7198°
perigee height: 35720 km
apogee height: 35853 km
right ascension of ascending node: 51.1963°
argument of perigee: 212.3779°
revolutions per day: 1.00270000
mean anomaly at epoch: 147.5361°
orbit number at epoch: 0

The dashed part of the orbit path shows where the satellite is in the earth's shadow,  

DLR